Погода в Нише

Сербия     43°19′13″N   21°54′01″E
темп.,
°C
ветер,
м/с
пор.,
м/с
влажн.,
%
обл.,
%
осадки,
мм/ч
давл.,
гПа
погр.,
м
26 февраля, пт
пт2601:00+8юв22720 0.0 103122
04:00+7вюв11730 0.0 103122
07:00+7юв22730 0.0 103022
10:00+13ююз11530 0.0 1028360
13:00+16з11450 0.0 1026589
16:00+16зсз11480 0.0 1024300
19:00+11з00610 0.0 102422
22:00+10ю11670 0.0 102422
27 февраля, сб
сб2701:00+8ююз01740 0.0 102422
04:00+7юз00820 0.0 102222
07:00+7з01840 0.0 102322
10:00+11сз47697 0.0 1022872
13:00+12ссз7106636 0.0 10221238
16:00+8сз81279100 0.1 1023951
19:00+5сз5107874 0.1 1026786
22:00+5сз4107989 0.0 1028708
28 февраля, вс
вс2801:00+3сз398344 0.0 1029372
04:00+2сз37810 0.0 1029263
07:00+2зсз27810 0.0 1030415
10:00+5сз57600 0.0 1030893
13:00+7сз78542 0.0 10291161
16:00+7сз68471 0.0 10281161
19:00+4сз49661 0.0 1031325
22:00+2зсз37776 0.0 1032223
1 марта, пн
пн101:00+1юз118326 0.0 103322
04:000ююз11870 0.0 103221
07:00+1юз15840 0.0 1033398
10:00+5сз68580 0.0 10321069
13:00+7сз675132 0.0 10321459
16:00+7с454895 0.0 10321481
19:00+3с126448 0.0 103527
22:00+2ссв11720 0.0 103722
2 марта, вт
вт201:00+1юв00770 0.0 103722
04:000ююз00850 0.0 103721
07:00+1ю11873 0.0 103825
10:00+5зсз247136 0.0 1037691
13:00+8сз335432 0.0 1035953
16:00+8ссз34530 0.0 1034869
19:00+4сз11700 0.0 103622
22:00+3ю11740 0.0 103722